Kunming, China

6:53 PM CST on November 15, 2019 (GMT +0800)
Wujiaba

Weather History for ZPPP - October, 2019

Change the Weather History Date:

Monday, October 21, 2019

  Actual Average Record
Temperature  
Mean Temperature 63 °F -  
Max Temperature 73 °F 66 °F 76 °F (2016)
Min Temperature 53 °F 52 °F 44 °F (2004)
Degree Days  
Heating Degree Days 2    
Growing Degree Days 13 (Base 50)    
Moisture  
Dew Point 53 °F    
Average Humidity 71    
Maximum Humidity 94    
Minimum Humidity 38    
Precipitation  
Precipitation 0.00 in - - ()
Sea Level Pressure  
Sea Level Pressure 30.16 in    
Wind  
Wind Speed 9 mph ()    
Max Wind Speed 20 mph    
Max Gust Speed 27 mph    
Visibility 8.7 miles    
Events      
Averages and records for this station are not official NWS values.
T = Trace of Precipitation, MM = Missing Value Source: Averaged Metar Reports

Daily Weather History Graph

Daily Weather History Graph

Search for Another Location

Airport or City:

Astronomy

Oct. 21, 2019 Rise Set
Actual Time 7:10 AM CST 6:37 PM CST
Civil Twilight 6:46 AM CST 7:00 PM CST
Nautical Twilight 6:20 AM CST 7:27 PM CST
Astronomical Twilight 5:53 AM CST 7:53 PM CST
Moon No Moon Rise 1:39 PM CST (10/21)
Length of Visible Light 12h 13m
Length of Day
11h 27m
Waning Gibbous, 54% of the Moon is Illuminated
Oct 21
Waning Gibbous
Oct 21
Last Quarter
Oct 28
New
Nov 4
First Quarter
Nov 12
Full

Hourly Weather History & Observations

Time (CST) Temp. Dew Point Humidity Pressure Visibility Wind Dir Wind Speed Gust Speed Precip Events Conditions
12:00 AM 57.2 °F 51.8 °F 82% 30.24 in - SSW 8.9 mph - N/A   Clear
1:00 AM 55.4 °F 51.8 °F 88% 30.24 in - SSW 8.9 mph - N/A   Clear
2:00 AM 57 °F 53 °F 80%  in 9 mi West 2.2 mph - -  
2:00 AM 57.2 °F 53.6 °F 88% 30.21 in - SW 8.9 mph - N/A   Clear
3:00 AM 53.6 °F 51.8 °F 94% 30.21 in - SW 8.9 mph - N/A   Clear
4:00 AM 53.6 °F 51.8 °F 94% 30.18 in - SW 8.9 mph - N/A   Clear
5:00 AM 57 °F 54 °F 85%  in 8 mi WSW 6.7 mph - -  
6:00 AM 53.6 °F 51.8 °F 94% 30.18 in 6.2 mi SW 8.9 mph - N/A   Partly Cloudy
7:00 AM 57.2 °F 55.4 °F 94% 30.18 in 6.2 mi SW 13.4 mph - N/A   Mostly Cloudy
8:00 AM 58 °F 54 °F 83%  in 5 mi WSW 4.5 mph - -   Mostly Cloudy
8:00 AM 59.0 °F 55.4 °F 88% 30.21 in 6.2 mi SW 11.2 mph - N/A   Mostly Cloudy
9:00 AM 60.8 °F 55.4 °F 82% 30.21 in 6.2 mi SW 15.7 mph - N/A   Mostly Cloudy
10:00 AM 62.6 °F 55.4 °F 77% 30.21 in 6.2 mi SSW 13.4 mph - N/A   Mostly Cloudy
11:00 AM 68 °F 55 °F 53%  in 12 mi SSW 8.9 mph - -   Mostly Cloudy
11:00 AM 64.4 °F 53.6 °F 68% 30.21 in 6.2 mi SW 15.7 mph - N/A   Mostly Cloudy
12:00 PM 66.2 °F 51.8 °F 60% 30.18 in 6.2 mi SW 15.7 mph 26.8 mph N/A   Mostly Cloudy
1:00 PM 69.8 °F 51.8 °F 53% 30.15 in 6.2 mi WSW 17.9 mph - N/A   Scattered Clouds
3:00 PM 73.4 °F 50.0 °F 44% 30.09 in 6.2 mi WSW 17.9 mph - N/A   Scattered Clouds
5:00 PM 73 °F 53 °F 38%  in 19 mi WSW 6.7 mph - -   Partly Cloudy
5:00 PM 71.6 °F 50.0 °F 46% 30.06 in 6.2 mi WSW 15.7 mph - N/A   Scattered Clouds
6:00 PM 69.8 °F 50.0 °F 49% 30.06 in 6.2 mi WSW 20.1 mph - N/A   Partly Cloudy
7:00 PM 66.2 °F 50.0 °F 56% 30.06 in - WSW 13.4 mph - N/A   Clear
8:00 PM 66 °F 52 °F 50%  in 19 mi SW 6.7 mph - -   Scattered Clouds
8:00 PM 64.4 °F 51.8 °F 64% 30.09 in - SW 13.4 mph - N/A   Clear
9:00 PM 62.6 °F 51.8 °F 68% 30.09 in - SW 11.2 mph - N/A   Clear
11:00 PM 63 °F 53 °F 60%  in 16 mi WSW 4.5 mph - -  
11:00 PM 59.0 °F 53.6 °F 82% 30.09 in - SW 13.4 mph - N/A   Clear